Regional Weather Roundup
Issued by NWS Midland/Odessa, TX

Skip options and go directly to product.
Home | Oldest Version | Next Version | Current Version | All | Text Only | Save Text | Print | Product List | Glossary On

Skip product version selection by date and time.   
095
ASUS44 KMAF 301001
RWRMAF
MIDLAND AREA WEATHER ROUNDUP
NATIONAL WEATHER SERVICE MIDLAND TX
500 AM CDT SUN AUG 30 2015

...IN SOUTHWEST TEXAS AND SOUTHEAST NEW MEXICO...

CITY           SKY/WX    TMP DP  RH WIND       PRES   REMARKS
ALPINE         CLEAR     58  50  76 SW5       30.21S
ANDREWS        FAIR      64  57  80 CALM      30.12S
ARTESIA        CLEAR     66  64  94 CALM      30.14R
BIG SPRING     MOCLDY    62  55  79 N3        30.11R
CARLSBAD       CLEAR     67  52  58 S5        30.11R
DRYDEN           N/A     78  54  43 VRB5      30.02S
FORT STOCKTON  CLOUDY    69  55  60 SE3       30.08S
GUAD PASS      CLEAR     61  53  75 NE20      30.23F
HOBBS            N/A     61  61 100 CALM      30.15S
MARFA          CLEAR     55  48  76 N5        30.18S
MIDLAND AIRPK  CLEAR     66  59  77 CALM      30.10R
MIDLAND INTL   CLEAR     63  58  83 CALM      30.09R
ODESSA         PTCLDY    68  54  60 CALM      30.10S
PECOS          CLEAR     68  55  63 CALM      30.07R
PRESIDIO       NOT AVBL
SEMINOLE       CLEAR     61  54  78 W3        30.14R
SNYDER         MOCLDY    68  55  63 W5        30.08S
WINK           CLEAR     66  59  78 N5        30.07S
$$
...OTHER STATIONS IN TEXAS...

CITY           SKY/WX    TMP DP  RH WIND       PRES   REMARKS
ABILENE        CLOUDY    69  64  84 CALM      30.05R
AMARILLO       CLEAR     65  57  75 W3        30.13S
AUSTIN         CLOUDY    74  67  78 CALM      30.00S
BROWNSVILLE    CLEAR     75  74  96 CALM      29.95S
CORPUS CHRISTI PTCLDY    73  60  63 CALM      29.96S
DALLAS FTW     CLOUDY    77  66  68 SW7       29.96R
DEL RIO        CLOUDY    78  58  49 E7        29.99R
EL PASO        FAIR      73  55  53 E6        30.11S
HOUSTON INT    MOCLDY    71  66  84 CALM      29.99S
LUBBOCK        MOCLDY    60  56  86 W5        30.12S
SAN ANGELO     CLOUDY    75  60  59 CALM      30.04R
SAN ANTONIO    LGT RAIN  76  64  66 S7        30.01F
WACO           CLOUDY    80  64  58 S9        29.98S
WICHITA FALLS  NOT AVBL
$$
...OTHER LOCATIONS IN NEW MEXICO...

CITY           SKY/WX    TMP DP  RH WIND       PRES   REMARKS
ALAMAGORDO     CLEAR     64  55  72 NW5       30.14S
ALBUQUERQUE    CLEAR     68  49  50 N6        30.23S
CANNON AFB     NOT AVBL
CLOVIS         CLEAR     61  54  77 NW5       30.17F
HOLLOMAN AFB   CLEAR     65  58  78 N2        30.13R
ROSWELL        CLEAR     65  59  81 CALM      30.13S
RUIDOSO        CLEAR     57  48  72 MISG      30.34F
SANTA FE       CLEAR     59  50  72 E3        30.29F
TRUTH OR CONSE FAIR      70  52  52 NW8       30.18R
TUCUMCARI      CLEAR     62  55  77 W6        30.14F
$$

USA.gov is the U.S. government's official web portal to all federal, state and local government web resources and services.